• Processing (Info)

  • MPEC 1999-J52 : 1999 JV6

    The following Minor Planet Electronic Circular may be linked-to from your own Web pages, but must not otherwise be redistributed electronically.

    A form allowing access to any MPEC is at the bottom of this page.


    Read MPEC 1999-J51 Read MPEC 1999-J53


    M.P.E.C. 1999-J52                                Issued 1999 May 15, 17:54 UT
    
         The Minor Planet Electronic Circulars contain information on unusual
             minor planets and routine data on comets.  They are published
       on behalf of Commission 20 of the International Astronomical Union by the
              Minor Planet Center, Smithsonian Astrophysical Observatory,
                              Cambridge, MA 02138, U.S.A.
    
                 BMARSDEN@CFA.HARVARD.EDU or GWILLIAMS@CFA.HARVARD.EDU
              URL http://cfa-www.harvard.edu/iau/mpc.html  ISSN 1523-6714
    
                                       1999 JV6
    
    Observations:
         J99J06V* C1999 05 13.29063 15 31 47.76 +22 30 11.1          18.1        704
         J99J06V  C1999 05 13.29937 15 31 45.64 +22 30 42.5          18.7        704
         J99J06V  C1999 05 13.30799 15 31 43.38 +22 31 13.8          18.4        704
         J99J06V  C1999 05 13.31672 15 31 41.36 +22 31 47.1          18.7        704
         J99J06V  C1999 05 13.32531 15 31 39.13 +22 32 18.8          18.9        704
         J99J06V  C1999 05 14.22471 15 28 12.53 +23 27 51.6          18.9        704
         J99J06V  C1999 05 14.23513 15 28 09.78 +23 28 31.4                      719
         J99J06V  C1999 05 14.23822 15 28 09.01 +23 28 43.2                      719
         J99J06V  C1999 05 14.23986 15 28 08.62 +23 28 48.9                      704
         J99J06V  C1999 05 14.25491 15 28 04.74 +23 29 47.1          19.1        704
         J99J06V  C1999 05 14.27003 15 28 00.78 +23 30 43.3          18.7        704
         J99J06V  C1999 05 14.28041 15 27 58.06 +23 31 21.8                      719
         J99J06V  C1999 05 14.28567 15 27 56.61 +23 31 40.7          18.7        704
         J99J06V  C1999 05 14.28663 15 27 56.44 +23 31 45.1                      719
         J99J06V  C1999 05 14.30071 15 27 52.82 +23 32 38.3          16.8        704
         J99J06V  C1999 05 14.30561 15 27 51.51 +23 32 56.7          17.0        704
         J99J06V  C1999 05 14.31580 15 27 48.85 +23 33 33.5          17.3        704
         J99J06V  C1999 05 14.32071 15 27 47.52 +23 33 52.5          17.7        704
         J99J06V  C1999 05 14.33089 15 27 45.01 +23 34 31.2          18.0        704
         J99J06V  C1999 05 14.33579 15 27 43.64 +23 34 49.2          18.3        704
         J99J06V  C1999 05 14.34593 15 27 41.08 +23 35 27.8          18.4        704
         J99J06V  C1999 05 14.35085 15 27 39.61 +23 35 43.6          18.8        704
         J99J06V  C1999 05 14.36100 15 27 37.06 +23 36 21.4          17.9        704
         J99J06V  C1999 05 14.36596 15 27 35.77 +23 36 40.5          18.1        704
         J99J06V  C1999 05 14.37587 15 27 33.16 +23 37 17.0          16.9        704
         J99J06V  C1999 05 14.39785 15 27 27.52 +23 38 38.2          17.5        704
         J99J06V  C1999 05 14.41341 15 27 23.41 +23 39 34.3          17.7        704
         J99J06V  C1999 05 14.42878 15 27 19.47 +23 40 31.2          17.6        704
         J99J06V  C1999 05 14.44406 15 27 15.58 +23 41 27.2          17.3        704
         J99J06V  C1999 05 14.85539 15 25 39.34 +24 07 05.4                      557
         J99J06V  C1999 05 14.85655 15 25 39.02 +24 07 10.2                      557
         J99J06V  C1999 05 14.85772 15 25 38.75 +24 07 14.1                      557
         J99J06V  C1999 05 14.94329 15 25 16.74 +24 12 50.7                      620
         J99J06V  C1999 05 14.94861 15 25 15.36 +24 13 10.3          17.2 V      620
         J99J06V  C1999 05 14.95405 15 25 13.95 +24 13 30.3                      620
         J99J06V  C1999 05 14.95810 15 25 12.90 +24 13 45.2          17.3 V      620
         J99J06V  C1999 05 15.62039 15 22 23.80 +24 56 49.8          16.8 R      426
         J99J06V  C1999 05 15.62306 15 22 23.03 +24 56 59.9          17.0 R      426
         J99J06V  C1999 05 15.62644 15 22 22.07 +24 57 12.7          16.9 R      426
    
    Observer details:
    426 Woomera.  Observer F. B. Zoltowski.  0.30-m f/3.3 Schmidt-Cassegrain + CCD.
    557 Ondrejov.  Observer L. Sarounova.  0.65-m f/3.6 reflector + CCD.
    620 Observatorio Astronomico de Mallorca.  Observers A. Lopez, R. Pacheco.
        0.30-m f/3.3 Schmidt-Cassegrain + CCD.
    704 Lincoln Laboratory ETS, New Mexico.  Observers M. Blythe, F. Shelly,
        M. Bezpalko, M. Elowitz.  Measurers J. Stuart, H. Viggh, R. Sayer.  1.0-m
        f/2.15 reflector + CCD.
    719 Etscorn Observatory.  Observers D. A. Klinglesmith III, R. Huber.  0.355-m
        Schmidt-Cassegrain + CCD.
    
    Orbital elements:
    1999 JV6                                                             PHA 0.028
    Epoch 1999 May 2.0 TT = JDT 2451300.5                   Williams
    M 252.44806              (2000.0)            P               Q
    n   0.97261316     Peri.  235.62999     +0.99697783     -0.00804659
    a   1.0088872      Node   124.71332     +0.03445069     +0.93726805
    e   0.3170071      Incl.    5.39374     -0.06963012     +0.34851665
    P   1.01           H   19.6           G   0.15
    From 39 observations 1999 May 13-15.
    
    Ephemeris:
    1999 JV6                 a,e,i = 1.01, 0.32, 5                   q = 0.6891
    Date    TT    R. A. (2000) Decl.     Delta      r     Elong.  Phase     V
    1999 05 12    15 36.45   +21 12.3    0.163    1.141   140.4    34.3    17.4
    1999 05 17    15 16.20   +26 24.8    0.147    1.118   134.2    40.4    17.3
    1999 05 22    14 49.10   +31 57.7    0.133    1.095   125.6    48.8    17.2
    1999 05 27    14 13.37   +37 32.5    0.122    1.070   114.8    59.2    17.3
    1999 06 01    13 27.03   +42 38.1    0.115    1.045   102.4    71.4    17.5
    1999 06 06    12 29.19   +46 29.2    0.111    1.018    88.7    85.1    17.9
    1999 06 11    11 22.61   +48 17.5    0.111    0.991    74.2    99.6    18.4
    1999 06 16    10 14.84   +47 39.6    0.114    0.963    59.6   114.6    19.3
    1999 06 21    09 14.07   +44 56.5    0.121    0.935    45.3   129.4    20.5
    
    Gareth V. Williams           (C) Copyright 1999 MPC           M.P.E.C. 1999-J52
    

    Read MPEC 1999-J51 Read MPEC 1999-J53


    MPEC number:

    Enter an MPEC number in one of the following forms:

    • 1997-B01 (the full form)
    • J97B01 (the packed version of the full form)
    • B01 (the abbreviated form)